Wetterdaten: Woche 03.10.05 - 09.10.05 (KW40)
Datum Zeit Temperatur Luftfeuchte Luftdruck Niederschlag Windrichtung Wind
03.10.2005 00:00 7,2 C 99 % 1020 hPa 3,0 l/m W 9,2 km/h (2 Bft)
03.10.2005 01:00 7,2 C 100 % 1020 hPa 2,0 l/m W 11,7 km/h (2 Bft)
03.10.2005 02:00 7,3 C 100 % 1020 hPa 0,0 l/m N-NW 18,6 km/h (3 Bft)
03.10.2005 03:00 7,8 C 100 % 1019 hPa 0,0 l/m N 14,9 km/h (3 Bft)
03.10.2005 04:00 8,1 C 100 % 1020 hPa 0,0 l/m N 14,1 km/h (3 Bft)
03.10.2005 05:00 8,3 C 100 % 1019 hPa 0,0 l/m N-NO 13,3 km/h (3 Bft)
03.10.2005 06:00 8,4 C 100 % 1020 hPa 0,0 l/m N-NO 13,8 km/h (3 Bft)
03.10.2005 07:00 8,4 C 100 % 1020 hPa 0,0 l/m N-NO 11,9 km/h (2 Bft)
03.10.2005 08:00 8,6 C 100 % 1021 hPa 0,0 l/m N-NO 10,7 km/h (2 Bft)
03.10.2005 09:00 7,9 C 100 % 1021 hPa 1,0 l/m S 8,3 km/h (2 Bft)
03.10.2005 10:00 7,8 C 100 % 1022 hPa 0,0 l/m S 1,6 km/h (1 Bft)
03.10.2005 11:00 8,3 C 100 % 1022 hPa 0,0 l/m N 0,9 km/h (0 Bft)
03.10.2005 12:00 9,2 C 100 % 1022 hPa 0,0 l/m N-NO 10,7 km/h (2 Bft)
03.10.2005 13:00 9,7 C 100 % 1022 hPa 0,0 l/m O-NO 9,4 km/h (2 Bft)
03.10.2005 14:00 10,0 C 100 % 1022 hPa 0,0 l/m N-NO 9,8 km/h (2 Bft)
03.10.2005 15:00 9,9 C 100 % 1022 hPa 0,0 l/m N-NO 12,3 km/h (3 Bft)
03.10.2005 16:00 9,8 C 99 % 1022 hPa 0,0 l/m N-NO 10,6 km/h (2 Bft)
03.10.2005 17:00 9,8 C 100 % 1021 hPa 0,0 l/m N 11,2 km/h (2 Bft)
03.10.2005 18:00 9,8 C 100 % 1022 hPa 0,0 l/m N 11,0 km/h (2 Bft)
03.10.2005 19:00 9,8 C 100 % 1021 hPa 0,0 l/m N 11,8 km/h (2 Bft)
03.10.2005 20:00 9,8 C 100 % 1021 hPa 0,0 l/m N 15,0 km/h (3 Bft)
03.10.2005 21:00 9,9 C 100 % 1021 hPa 0,0 l/m N 18,0 km/h (3 Bft)
03.10.2005 22:00 9,9 C 100 % 1021 hPa 0,0 l/m N 17,0 km/h (3 Bft)
03.10.2005 23:00 10,0 C 100 % 1020 hPa 0,0 l/m N-NO 13,2 km/h (3 Bft)
04.10.2005 00:00 10,2 C 100 % 1020 hPa 0,0 l/m N 13,7 km/h (3 Bft)
04.10.2005 01:00 10,3 C 100 % 1020 hPa 0,0 l/m N-NO 11,5 km/h (2 Bft)
04.10.2005 02:00 10,5 C 100 % 1019 hPa 0,0 l/m N 13,6 km/h (3 Bft)
04.10.2005 03:00 10,8 C 100 % 1018 hPa 0,0 l/m N-NO 14,0 km/h (3 Bft)
04.10.2005 04:00 11,0 C 100 % 1019 hPa 0,0 l/m O 10,4 km/h (2 Bft)
04.10.2005 05:00 11,2 C 100 % 1019 hPa 0,0 l/m O-NO 9,8 km/h (2 Bft)
04.10.2005 06:00 11,3 C 100 % 1018 hPa 0,0 l/m NO 4,8 km/h (1 Bft)
04.10.2005 07:00 10,9 C 100 % 1019 hPa 0,0 l/m O-NO 4,2 km/h (1 Bft)
04.10.2005 08:00 10,3 C 100 % 1019 hPa 0,0 l/m N 0,0 km/h (0 Bft)
04.10.2005 09:00 10,2 C 100 % 1019 hPa 0,0 l/m S-SW 0,1 km/h (0 Bft)
04.10.2005 10:00 11,0 C 100 % 1019 hPa 0,0 l/m NO 0,4 km/h (0 Bft)
04.10.2005 11:00 12,1 C 100 % 1019 hPa 0,0 l/m NO 2,8 km/h (1 Bft)
04.10.2005 12:00 12,5 C 100 % 1020 hPa 0,0 l/m N-NO 1,8 km/h (1 Bft)
04.10.2005 13:00 13,0 C 98 % 1019 hPa 0,0 l/m N-NO 0,6 km/h (0 Bft)
04.10.2005 14:00 13,6 C 95 % 1019 hPa 0,0 l/m NO 1,4 km/h (1 Bft)
04.10.2005 15:00 14,5 C 91 % 1019 hPa 0,0 l/m O-NO 3,5 km/h (1 Bft)
04.10.2005 16:00 14,3 C 88 % 1019 hPa 0,0 l/m O-NO 2,6 km/h (1 Bft)
04.10.2005 17:00 14,1 C 89 % 1019 hPa 0,0 l/m N 0,0 km/h (0 Bft)
04.10.2005 18:00 13,8 C 92 % 1019 hPa 0,0 l/m S 1,0 km/h (0 Bft)
04.10.2005 19:00 13,2 C 95 % 1019 hPa 0,0 l/m S-SW 3,5 km/h (1 Bft)
04.10.2005 20:00 12,5 C 97 % 1020 hPa 0,0 l/m S 4,8 km/h (1 Bft)
04.10.2005 21:00 11,8 C 99 % 1020 hPa 0,0 l/m S 4,8 km/h (1 Bft)
04.10.2005 22:00 11,4 C 100 % 1021 hPa 0,0 l/m S 9,5 km/h (2 Bft)
04.10.2005 23:00 11,2 C 100 % 1021 hPa 0,0 l/m S 4,2 km/h (1 Bft)
05.10.2005 00:00 11,1 C 100 % 1020 hPa 0,0 l/m N-NW 5,5 km/h (1 Bft)
05.10.2005 01:00 10,9 C 100 % 1020 hPa 0,0 l/m N-NW 5,9 km/h (2 Bft)
05.10.2005 02:00 10,8 C 100 % 1021 hPa 0,0 l/m S 5,7 km/h (1 Bft)
05.10.2005 03:00 10,5 C 100 % 1020 hPa 0,0 l/m S 0,3 km/h (0 Bft)
05.10.2005 04:00 10,4 C 100 % 1020 hPa 0,0 l/m N 0,0 km/h (0 Bft)
05.10.2005 05:00 10,5 C 100 % 1020 hPa 0,0 l/m N 0,0 km/h (0 Bft)
05.10.2005 06:00 10,5 C 100 % 1020 hPa 0,0 l/m S-SO 0,5 km/h (0 Bft)
05.10.2005 07:00 10,5 C 100 % 1021 hPa 0,0 l/m S 3,0 km/h (1 Bft)
05.10.2005 08:00 10,6 C 100 % 1021 hPa 0,0 l/m N 0,0 km/h (0 Bft)
05.10.2005 09:00 10,8 C 100 % 1022 hPa 0,0 l/m S 4,0 km/h (1 Bft)
05.10.2005 10:00 11,3 C 100 % 1022 hPa 0,0 l/m S-SO 4,4 km/h (1 Bft)
05.10.2005 11:00 12,3 C 100 % 1022 hPa 0,0 l/m S-SW 2,2 km/h (1 Bft)
05.10.2005 12:00 13,2 C 95 % 1022 hPa 0,0 l/m S 0,2 km/h (0 Bft)
05.10.2005 13:00 13,8 C 89 % 1021 hPa 0,0 l/m O-NO 2,2 km/h (1 Bft)
05.10.2005 14:00 14,1 C 85 % 1021 hPa 0,0 l/m S-SW 2,1 km/h (1 Bft)
05.10.2005 15:00 14,3 C 86 % 1021 hPa 0,0 l/m N 7,0 km/h (2 Bft)
05.10.2005 16:00 14,5 C 83 % 1021 hPa 0,0 l/m N-NO 4,4 km/h (1 Bft)
05.10.2005 17:00 14,4 C 86 % 1021 hPa 0,0 l/m N 0,0 km/h (0 Bft)
05.10.2005 18:00 14,0 C 90 % 1021 hPa 0,0 l/m N 0,0 km/h (0 Bft)
05.10.2005 19:00 13,5 C 93 % 1021 hPa 0,0 l/m NW 1,0 km/h (0 Bft)
05.10.2005 20:00 13,4 C 95 % 1021 hPa 0,0 l/m NW 1,8 km/h (1 Bft)
05.10.2005 21:00 13,1 C 96 % 1021 hPa 0,0 l/m S 4,5 km/h (1 Bft)
05.10.2005 22:00 12,8 C 98 % 1021 hPa 0,0 l/m S-SW 0,4 km/h (0 Bft)
05.10.2005 23:00 12,6 C 99 % 1021 hPa 0,0 l/m N 0,0 km/h (0 Bft)
06.10.2005 00:00 12,5 C 99 % 1021 hPa 0,0 l/m N 0,0 km/h (0 Bft)
06.10.2005 01:00 12,3 C 99 % 1021 hPa 0,0 l/m N 0,0 km/h (0 Bft)
06.10.2005 02:00 12,2 C 100 % 1021 hPa 0,0 l/m N 0,0 km/h (0 Bft)
06.10.2005 03:00 12,2 C 100 % 1021 hPa 0,0 l/m N 0,0 km/h (0 Bft)
06.10.2005 04:00 12,2 C 100 % 1021 hPa 0,0 l/m N 0,0 km/h (0 Bft)
06.10.2005 05:00 12,4 C 100 % 1020 hPa 0,0 l/m N-NO 5,9 km/h (2 Bft)
06.10.2005 06:00 12,3 C 100 % 1020 hPa 0,0 l/m N-NO 4,4 km/h (1 Bft)
06.10.2005 07:00 12,1 C 100 % 1020 hPa 0,0 l/m N-NO 5,4 km/h (1 Bft)
06.10.2005 08:00 12,0 C 100 % 1021 hPa 0,0 l/m N 5,8 km/h (2 Bft)
06.10.2005 09:00 12,0 C 100 % 1021 hPa 0,0 l/m N 7,8 km/h (2 Bft)
06.10.2005 10:00 12,4 C 99 % 1021 hPa 0,0 l/m N 6,4 km/h (2 Bft)
06.10.2005 11:00 12,9 C 97 % 1021 hPa 0,0 l/m N-NO 7,0 km/h (2 Bft)
06.10.2005 12:00 13,9 C 90 % 1021 hPa 0,0 l/m N 7,1 km/h (2 Bft)
06.10.2005 13:00 14,2 C 84 % 1021 hPa 0,0 l/m N 8,2 km/h (2 Bft)
06.10.2005 14:00 14,4 C 82 % 1021 hPa 0,0 l/m N-NO 10,6 km/h (2 Bft)
06.10.2005 15:00 14,8 C 79 % 1021 hPa 0,0 l/m N 9,4 km/h (2 Bft)
06.10.2005 16:00 14,5 C 80 % 1021 hPa 0,0 l/m N 1,2 km/h (1 Bft)
06.10.2005 17:00 14,2 C 82 % 1021 hPa 0,0 l/m N 4,1 km/h (1 Bft)
06.10.2005 18:00 13,7 C 86 % 1021 hPa 0,0 l/m N 0,0 km/h (0 Bft)
06.10.2005 19:00 13,2 C 89 % 1021 hPa 0,0 l/m W 4,0 km/h (1 Bft)
06.10.2005 20:00 12,8 C 91 % 1021 hPa 0,0 l/m W 1,7 km/h (1 Bft)
06.10.2005 21:00 12,7 C 91 % 1021 hPa 0,0 l/m W 1,4 km/h (1 Bft)
06.10.2005 22:00 12,5 C 90 % 1021 hPa 0,0 l/m W-NW 0,9 km/h (0 Bft)
06.10.2005 23:00 12,5 C 90 % 1021 hPa 0,0 l/m NW 3,2 km/h (1 Bft)
07.10.2005 00:00 12,3 C 91 % 1021 hPa 0,0 l/m S-SO 0,3 km/h (0 Bft)
07.10.2005 01:00 12,2 C 93 % 1021 hPa 0,0 l/m S-SW 0,5 km/h (0 Bft)
07.10.2005 02:00 12,1 C 95 % 1021 hPa 0,0 l/m N 0,0 km/h (0 Bft)
07.10.2005 03:00 11,8 C 96 % 1021 hPa 0,0 l/m NW 0,5 km/h (0 Bft)
07.10.2005 04:00 11,4 C 96 % 1020 hPa 0,0 l/m N-NW 0,3 km/h (0 Bft)
07.10.2005 05:00 10,8 C 97 % 1020 hPa 0,0 l/m N 0,0 km/h (0 Bft)
07.10.2005 06:00 9,6 C 97 % 1020 hPa 0,0 l/m N 0,0 km/h (0 Bft)
07.10.2005 07:00 9,1 C 98 % 1020 hPa 0,0 l/m N-NW 1,9 km/h (1 Bft)
07.10.2005 08:00 9,3 C 99 % 1020 hPa 0,0 l/m N-NW 4,2 km/h (1 Bft)
07.10.2005 09:00 9,5 C 100 % 1020 hPa 0,0 l/m NW 4,5 km/h (1 Bft)
07.10.2005 10:00 10,1 C 100 % 1020 hPa 0,0 l/m N 4,4 km/h (1 Bft)
07.10.2005 11:00 11,0 C 100 % 1020 hPa 0,0 l/m O-NO 3,6 km/h (1 Bft)
07.10.2005 12:00 11,8 C 98 % 1020 hPa 0,0 l/m O-NO 0,9 km/h (0 Bft)
07.10.2005 13:00 13,0 C 91 % 1019 hPa 0,0 l/m N 2,8 km/h (1 Bft)
07.10.2005 14:00 14,8 C 77 % 1019 hPa 0,0 l/m N-NW 1,9 km/h (1 Bft)
07.10.2005 15:00 14,4 C 78 % 1019 hPa 0,0 l/m N-NO 0,2 km/h (0 Bft)
07.10.2005 16:00 13,6 C 84 % 1019 hPa 0,0 l/m NW 0,4 km/h (0 Bft)
07.10.2005 17:00 13,3 C 88 % 1019 hPa 0,0 l/m W-NW 0,4 km/h (0 Bft)
07.10.2005 18:00 12,6 C 93 % 1019 hPa 0,0 l/m N-NW 1,7 km/h (1 Bft)
07.10.2005 19:00 12,1 C 95 % 1019 hPa 0,0 l/m N 2,6 km/h (1 Bft)
07.10.2005 20:00 11,5 C 97 % 1019 hPa 0,0 l/m NW 3,2 km/h (1 Bft)
07.10.2005 21:00 10,8 C 98 % 1019 hPa 0,0 l/m W-NW 0,7 km/h (0 Bft)
07.10.2005 22:00 10,4 C 100 % 1019 hPa 0,0 l/m N 0,0 km/h (0 Bft)
07.10.2005 23:00 10,4 C 100 % 1019 hPa 0,0 l/m N 0,0 km/h (0 Bft)
08.10.2005 00:00 10,2 C 100 % 1019 hPa 0,0 l/m W 0,3 km/h (0 Bft)
08.10.2005 01:00 9,9 C 100 % 1019 hPa 0,0 l/m N 0,0 km/h (0 Bft)
08.10.2005 02:00 10,2 C 100 % 1019 hPa 0,0 l/m S 1,0 km/h (0 Bft)
08.10.2005 03:00 10,4 C 100 % 1019 hPa 0,0 l/m W-SW 2,2 km/h (1 Bft)
08.10.2005 04:00 10,4 C 100 % 1019 hPa 0,0 l/m S 0,7 km/h (0 Bft)
08.10.2005 05:00 10,6 C 100 % 1020 hPa 0,0 l/m W 0,6 km/h (0 Bft)
08.10.2005 06:00 10,7 C 100 % 1020 hPa 0,0 l/m N 0,0 km/h (0 Bft)
08.10.2005 07:00 11,0 C 100 % 1020 hPa 0,0 l/m S-SW 2,6 km/h (1 Bft)
08.10.2005 08:00 11,3 C 100 % 1021 hPa 0,0 l/m S-SW 6,7 km/h (2 Bft)
08.10.2005 09:00 11,8 C 100 % 1021 hPa 0,0 l/m S-SW 7,6 km/h (2 Bft)
08.10.2005 10:00 12,2 C 100 % 1021 hPa 0,0 l/m S-SW 6,0 km/h (2 Bft)
08.10.2005 11:00 13,1 C 95 % 1021 hPa 0,0 l/m W-SW 8,5 km/h (2 Bft)
08.10.2005 12:00 13,8 C 85 % 1021 hPa 0,0 l/m W 8,5 km/h (2 Bft)
08.10.2005 13:00 14,6 C 79 % 1021 hPa 0,0 l/m W 4,1 km/h (1 Bft)
08.10.2005 14:00 16,0 C 74 % 1021 hPa 0,0 l/m W 2,7 km/h (1 Bft)
08.10.2005 15:00 17,6 C 65 % 1020 hPa 0,0 l/m S-SW 4,3 km/h (1 Bft)
08.10.2005 16:00 16,8 C 65 % 1020 hPa 0,0 l/m S 0,9 km/h (0 Bft)
08.10.2005 17:00 16,4 C 70 % 1020 hPa 0,0 l/m S 0,9 km/h (0 Bft)
08.10.2005 18:00 15,1 C 78 % 1020 hPa 0,0 l/m N 0,0 km/h (0 Bft)
08.10.2005 19:00 13,1 C 85 % 1020 hPa 0,0 l/m N 0,0 km/h (0 Bft)
08.10.2005 20:00 11,8 C 90 % 1021 hPa 0,0 l/m N 0,0 km/h (0 Bft)
08.10.2005 21:00 10,8 C 93 % 1021 hPa 0,0 l/m N 0,0 km/h (0 Bft)
08.10.2005 22:00 10,2 C 95 % 1021 hPa 0,0 l/m N 0,0 km/h (0 Bft)
08.10.2005 23:00 9,2 C 95 % 1021 hPa 0,0 l/m N 0,0 km/h (0 Bft)
09.10.2005 00:00 8,9 C 97 % 1021 hPa 0,0 l/m N 0,0 km/h (0 Bft)
09.10.2005 01:00 8,7 C 98 % 1021 hPa 0,0 l/m N 0,0 km/h (0 Bft)
09.10.2005 02:00 8,8 C 99 % 1022 hPa 0,0 l/m S 1,8 km/h (1 Bft)
09.10.2005 03:00 8,5 C 100 % 1022 hPa 0,0 l/m N 0,3 km/h (0 Bft)
09.10.2005 04:00 8,2 C 100 % 1022 hPa 0,0 l/m N 0,0 km/h (0 Bft)
09.10.2005 05:00 7,8 C 100 % 1023 hPa 0,0 l/m N 0,0 km/h (0 Bft)
09.10.2005 06:00 7,8 C 100 % 1023 hPa 0,0 l/m N 0,0 km/h (0 Bft)
09.10.2005 07:00 8,0 C 100 % 1024 hPa 0,0 l/m N 0,0 km/h (0 Bft)
09.10.2005 08:00 8,1 C 100 % 1024 hPa 0,0 l/m S-SW 2,9 km/h (1 Bft)
09.10.2005 09:00 8,8 C 100 % 1024 hPa 0,0 l/m S 4,6 km/h (1 Bft)
09.10.2005 10:00 9,7 C 100 % 1024 hPa 0,0 l/m S 11,4 km/h (2 Bft)
09.10.2005 11:00 10,9 C 100 % 1025 hPa 0,0 l/m S-SW 7,7 km/h (2 Bft)
09.10.2005 12:00 12,3 C 100 % 1025 hPa 0,0 l/m S-SW 2,9 km/h (1 Bft)
09.10.2005 13:00 15,0 C 96 % 1025 hPa 0,0 l/m O-SO 3,0 km/h (1 Bft)
09.10.2005 14:00 18,6 C 68 % 1024 hPa 0,0 l/m N-NW 6,5 km/h (2 Bft)
09.10.2005 15:00 19,3 C 58 % 1024 hPa 0,0 l/m N 5,3 km/h (1 Bft)
09.10.2005 16:00 18,2 C 51 % 1024 hPa 0,0 l/m N-NO 0,7 km/h (0 Bft)
09.10.2005 17:00 16,9 C 61 % 1024 hPa 0,0 l/m N 0,0 km/h (0 Bft)
09.10.2005 18:00 14,5 C 72 % 1024 hPa 0,0 l/m N 0,0 km/h (0 Bft)
09.10.2005 19:00 12,4 C 81 % 1025 hPa 12,0 l/m N 0,0 km/h (0 Bft)
09.10.2005 20:00 11,1 C 84 % 1025 hPa 0,0 l/m N 0,0 km/h (0 Bft)
09.10.2005 21:00 10,2 C 89 % 1025 hPa 0,0 l/m W-NW 2,1 km/h (1 Bft)
09.10.2005 22:00 9,9 C 94 % 1025 hPa 0,0 l/m W-NW 3,0 km/h (1 Bft)
09.10.2005 23:00 9,3 C 96 % 1025 hPa 0,0 l/m NW 6,9 km/h (2 Bft)
Min-Datum _ 03.10.05 09.10.05 04.10.05 - - 03.10.05
_ Min-Zeit 00:26 16:43 03:00 - - 00:23
Minimum _ 7,1 C 48 % 1018 hPa - - 0,0 km/h (0 Bft)
Max-Datum _ 09.10.05 03.10.05 09.10.05 09.10.05 - 03.10.05
_ Max-Zeit 15:12 00:44 11:15 19:06 - 02:34
Maximum _ 19,5 C 100 % 1025 hPa 12,0 l/m - 36,8 km/h
N-NW (5 Bft)
Durchschnitt _ 11,6 C 94 % 1021 hPa #18,0 l/m N 4,2 km/h (1 Bft)

Durchschnitt Minimum Temp.11,3 C
Durchschnitt Maximum Temp.11,9 C